STARLINK-5300 (55676 NORAD) Tracking and Keplerian Element Data

This shows tracking and keplerian element data for the satellite.

Feedback or suggestion? Click here.




ElementValue
Catalog55676
NameSTARLINK-5300
Epoch Orbit623
Epoch Day85.04087637
Epoch Year2023
RAAN47.9398
Inclination70.0024
Eccentricity0.0003234
Argument of Perigee249.4843
Mean Anonmoly110.6006
Mean Motion15.69926858
Decay Rate9.443E-05
L11 55676U 23021BA 23085.04087637 .00009443 00000+0 80206-4 0 9999
L22 55676 70.0024 47.9398 0003234 249.4843 110.6006 15.69926858 6234



Live tracking and technical data element details for STARLINK-5300 (NORAD 55676). STARLINK-5300 can be tracked NOW for your location showing map with azimuth and elevation plus other details from your city location.







IsCatalogInMostPopularTable: catalog: 55676, numindb: 2
Update: records affected: 1



GetName: 55676 STARLINK-5300

Hit Count: updated at: Tue, 28 Mar 2023 02:07:55 GMT